Year,Month,Day,Hour,Minute,Value (Times are PST for temperature in C)
2016,07,29,00,00,18.60
2016,07,29,00,01,18.60
2016,07,29,00,02,18.60
2016,07,29,00,03,18.50
2016,07,29,00,04,18.50
2016,07,29,00,05,18.50
2016,07,29,00,06,18.50
2016,07,29,00,07,18.40
2016,07,29,00,08,18.40
2016,07,29,00,09,18.40
2016,07,29,00,10,18.40
2016,07,29,00,11,18.40
2016,07,29,00,12,18.40
2016,07,29,00,13,18.40
2016,07,29,00,14,18.30
2016,07,29,00,15,18.30
2016,07,29,00,16,18.30
2016,07,29,00,17,18.30
2016,07,29,00,18,18.30
2016,07,29,00,19,18.30
2016,07,29,00,20,18.30
2016,07,29,00,21,18.30
2016,07,29,00,22,18.20
2016,07,29,00,23,18.20
2016,07,29,00,24,18.20
2016,07,29,00,25,18.20
2016,07,29,00,26,18.20
2016,07,29,00,27,18.20
2016,07,29,00,28,18.20
2016,07,29,00,29,18.20
2016,07,29,00,30,18.20
2016,07,29,00,31,18.20
2016,07,29,00,32,18.20
2016,07,29,00,33,18.20
2016,07,29,00,34,18.20
2016,07,29,00,35,18.10
2016,07,29,00,36,18.10
2016,07,29,00,37,18.10
2016,07,29,00,38,18.10
2016,07,29,00,39,18.10
2016,07,29,00,40,18.10
2016,07,29,00,41,18.10
2016,07,29,00,42,18.10
2016,07,29,00,43,18.00
2016,07,29,00,44,18.00
2016,07,29,00,45,18.00
2016,07,29,00,46,18.00
2016,07,29,00,47,17.90
2016,07,29,00,48,17.90
2016,07,29,00,49,17.90
2016,07,29,00,50,17.90
2016,07,29,00,51,17.90
2016,07,29,00,52,17.90
2016,07,29,00,53,17.90
2016,07,29,00,54,17.80
2016,07,29,00,55,17.80
2016,07,29,00,56,17.80
2016,07,29,00,57,17.80
2016,07,29,00,58,17.80
2016,07,29,00,59,17.80
2016,07,29,01,00,17.70
2016,07,29,01,01,17.70
2016,07,29,01,02,17.70
2016,07,29,01,03,17.70
2016,07,29,01,04,17.70
2016,07,29,01,05,17.70
2016,07,29,01,06,17.70
2016,07,29,01,07,17.70
2016,07,29,01,08,17.60
2016,07,29,01,09,17.60
2016,07,29,01,10,17.60
2016,07,29,01,11,17.60
2016,07,29,01,12,17.60
2016,07,29,01,13,17.60
2016,07,29,01,14,17.60
2016,07,29,01,15,17.50
2016,07,29,01,16,17.50
2016,07,29,01,17,17.50
2016,07,29,01,18,17.50
2016,07,29,01,19,17.50
2016,07,29,01,20,17.40
2016,07,29,01,21,17.40
2016,07,29,01,22,17.40
2016,07,29,01,23,17.40
2016,07,29,01,24,17.40
2016,07,29,01,25,17.30
2016,07,29,01,26,17.30
2016,07,29,01,27,17.30
2016,07,29,01,28,17.30
2016,07,29,01,29,17.30
2016,07,29,01,30,17.30
2016,07,29,01,31,17.30
2016,07,29,01,32,17.30
2016,07,29,01,33,17.30
2016,07,29,01,34,17.20
2016,07,29,01,35,17.20
2016,07,29,01,36,17.20
2016,07,29,01,37,17.20
2016,07,29,01,38,17.20
2016,07,29,01,39,17.20
2016,07,29,01,40,17.20
2016,07,29,01,41,17.10
2016,07,29,01,42,17.10
2016,07,29,01,43,17.10
2016,07,29,01,44,17.10
2016,07,29,01,45,17.10
2016,07,29,01,46,17.10
2016,07,29,01,47,17.00
2016,07,29,01,48,17.00
2016,07,29,01,49,17.00
2016,07,29,01,50,16.90
2016,07,29,01,51,16.90
2016,07,29,01,52,16.90
2016,07,29,01,53,16.90
2016,07,29,01,54,16.90
2016,07,29,01,55,16.80
2016,07,29,01,56,16.80
2016,07,29,01,57,16.80
2016,07,29,01,58,16.80
2016,07,29,01,59,16.80
2016,07,29,02,00,16.80
2016,07,29,02,01,16.80
2016,07,29,02,02,16.80
2016,07,29,02,03,16.70
2016,07,29,02,04,16.70
2016,07,29,02,05,16.70
2016,07,29,02,06,16.70
2016,07,29,02,07,16.70
2016,07,29,02,08,16.70
2016,07,29,02,09,16.70
2016,07,29,02,10,16.60
2016,07,29,02,11,16.60
2016,07,29,02,12,16.60
2016,07,29,02,13,16.60
2016,07,29,02,14,16.60
2016,07,29,02,15,16.60
2016,07,29,02,16,16.60
2016,07,29,02,17,16.60
2016,07,29,02,18,16.60
2016,07,29,02,19,16.60
2016,07,29,02,20,16.60
2016,07,29,02,21,16.60
2016,07,29,02,22,16.60
2016,07,29,02,23,16.60
2016,07,29,02,24,16.50
2016,07,29,02,25,16.50
2016,07,29,02,26,16.50
2016,07,29,02,27,16.50
2016,07,29,02,28,16.40
2016,07,29,02,29,16.40
2016,07,29,02,30,16.40
2016,07,29,02,31,16.40
2016,07,29,02,32,16.40
2016,07,29,02,33,16.40
2016,07,29,02,34,16.30
2016,07,29,02,35,16.30
2016,07,29,02,36,16.30
2016,07,29,02,37,16.30
2016,07,29,02,38,16.30
2016,07,29,02,39,16.30
2016,07,29,02,40,16.30
2016,07,29,02,41,16.30
2016,07,29,02,42,16.30
2016,07,29,02,43,16.20
2016,07,29,02,44,16.20
2016,07,29,02,45,16.20
2016,07,29,02,46,16.20
2016,07,29,02,47,16.20
2016,07,29,02,48,16.20
2016,07,29,02,49,16.20
2016,07,29,02,50,16.20
2016,07,29,02,51,16.20
2016,07,29,02,52,16.20
2016,07,29,02,53,16.10
2016,07,29,02,54,16.10
2016,07,29,02,55,16.10
2016,07,29,02,56,16.10
2016,07,29,02,57,16.10
2016,07,29,02,58,16.10
2016,07,29,02,59,16.10
2016,07,29,03,00,16.10
2016,07,29,03,01,16.10
2016,07,29,03,02,16.00
2016,07,29,03,06,16.00
2016,07,29,03,07,16.00
2016,07,29,03,08,16.00
2016,07,29,03,09,15.90
2016,07,29,03,10,16.00
2016,07,29,03,11,16.00
2016,07,29,03,12,16.00
2016,07,29,03,13,16.00
2016,07,29,03,14,15.90
2016,07,29,03,15,15.90
2016,07,29,03,16,15.90
2016,07,29,03,17,15.90
2016,07,29,03,18,15.90
2016,07,29,03,19,15.90
2016,07,29,03,20,15.90
2016,07,29,03,21,15.90
2016,07,29,03,22,15.90
2016,07,29,03,23,15.90
2016,07,29,03,24,15.90
2016,07,29,03,25,15.80
2016,07,29,03,26,15.80
2016,07,29,03,27,15.80
2016,07,29,03,28,15.80
2016,07,29,03,29,15.80
2016,07,29,03,30,15.80
2016,07,29,03,31,15.80
2016,07,29,03,32,15.80
2016,07,29,03,33,15.80
2016,07,29,03,34,15.80
2016,07,29,03,35,15.70
2016,07,29,03,36,15.70
2016,07,29,03,37,15.70
2016,07,29,03,38,15.70
2016,07,29,03,39,15.70
2016,07,29,03,40,15.70
2016,07,29,03,41,15.70
2016,07,29,03,42,15.70
2016,07,29,03,43,15.70
2016,07,29,03,44,15.70
2016,07,29,03,45,15.70
2016,07,29,03,46,15.70
2016,07,29,03,47,15.60
2016,07,29,03,48,15.60
2016,07,29,03,49,15.60
2016,07,29,03,50,15.60
2016,07,29,03,51,15.60
2016,07,29,03,52,15.60
2016,07,29,03,53,15.60
2016,07,29,03,54,15.60
2016,07,29,03,55,15.60
2016,07,29,03,56,15.60
2016,07,29,03,57,15.60
2016,07,29,03,58,15.50
2016,07,29,03,59,15.50
2016,07,29,04,00,15.50
2016,07,29,04,01,15.50
2016,07,29,04,02,15.50
2016,07,29,04,03,15.50
2016,07,29,04,04,15.50
2016,07,29,04,05,15.50
2016,07,29,04,06,15.50
2016,07,29,04,07,15.50
2016,07,29,04,08,15.50
2016,07,29,04,09,15.40
2016,07,29,04,10,15.40
2016,07,29,04,11,15.40
2016,07,29,04,12,15.40
2016,07,29,04,13,15.40
2016,07,29,04,14,15.40
2016,07,29,04,15,15.40
2016,07,29,04,16,15.40
2016,07,29,04,17,15.40
2016,07,29,04,18,15.40
2016,07,29,04,19,15.30
2016,07,29,04,20,15.30
2016,07,29,04,21,15.30
2016,07,29,04,22,15.30
2016,07,29,04,23,15.30
2016,07,29,04,24,15.30
2016,07,29,04,25,15.30
2016,07,29,04,26,15.30
2016,07,29,04,27,15.30
2016,07,29,04,28,15.30
2016,07,29,04,29,15.30
2016,07,29,04,30,15.30
2016,07,29,04,31,15.30
2016,07,29,04,32,15.30
2016,07,29,04,33,15.30
2016,07,29,04,34,15.30
2016,07,29,04,35,15.20
2016,07,29,04,36,15.30
2016,07,29,04,37,15.20
2016,07,29,04,38,15.20
2016,07,29,04,39,15.20
2016,07,29,04,40,15.20
2016,07,29,04,41,15.20
2016,07,29,04,42,15.20
2016,07,29,04,43,15.20
2016,07,29,04,44,15.20
2016,07,29,04,45,15.20
2016,07,29,04,46,15.20
2016,07,29,04,47,15.20
2016,07,29,04,48,15.10
2016,07,29,04,49,15.10
2016,07,29,04,50,15.10
2016,07,29,04,51,15.10
2016,07,29,04,52,15.10
2016,07,29,04,53,15.00
2016,07,29,04,54,15.00
2016,07,29,04,55,15.00
2016,07,29,04,56,15.00
2016,07,29,04,57,15.00
2016,07,29,04,58,15.00
2016,07,29,04,59,15.00
2016,07,29,05,00,15.00
2016,07,29,05,01,15.00
2016,07,29,05,02,15.00
2016,07,29,05,03,15.00
2016,07,29,05,04,15.00
2016,07,29,05,05,15.00
2016,07,29,05,06,15.00
2016,07,29,05,07,15.00
2016,07,29,05,08,15.00
2016,07,29,05,09,15.00
2016,07,29,05,10,15.00
2016,07,29,05,11,15.00
2016,07,29,05,12,15.00
2016,07,29,05,13,15.00
2016,07,29,05,14,15.00
2016,07,29,05,15,15.00
2016,07,29,05,16,15.00
2016,07,29,05,17,15.00
2016,07,29,05,18,15.00
2016,07,29,05,19,15.00
2016,07,29,05,20,14.90
2016,07,29,05,21,15.00
2016,07,29,05,22,14.90
2016,07,29,05,23,14.90
2016,07,29,05,24,14.90
2016,07,29,05,25,14.90
2016,07,29,05,26,14.90
2016,07,29,05,27,14.90
2016,07,29,05,28,14.90
2016,07,29,05,29,14.90
2016,07,29,05,30,14.90
2016,07,29,05,31,14.90
2016,07,29,05,32,14.90
2016,07,29,05,33,14.90
2016,07,29,05,34,14.90
2016,07,29,05,35,14.90
2016,07,29,05,36,14.90
2016,07,29,05,37,14.90
2016,07,29,05,38,14.90
2016,07,29,05,39,14.90
2016,07,29,05,40,14.90
2016,07,29,05,41,14.90
2016,07,29,05,42,14.90
2016,07,29,05,43,14.90
2016,07,29,05,44,14.80
2016,07,29,05,45,14.80
2016,07,29,05,46,14.80
2016,07,29,05,47,14.80
2016,07,29,05,48,14.80
2016,07,29,05,49,14.80
2016,07,29,05,50,14.80
2016,07,29,05,51,14.70
2016,07,29,05,52,14.70
2016,07,29,05,53,14.70
2016,07,29,05,54,14.70
2016,07,29,05,55,14.70
2016,07,29,05,56,14.70
2016,07,29,05,57,14.70
2016,07,29,05,58,14.70
2016,07,29,05,59,14.60
2016,07,29,06,00,14.70
2016,07,29,06,01,14.70
2016,07,29,06,02,14.70
2016,07,29,06,03,14.70
2016,07,29,06,04,14.70
2016,07,29,06,05,14.60
2016,07,29,06,06,14.60
2016,07,29,06,07,14.60
2016,07,29,06,08,14.60
2016,07,29,06,09,14.60
2016,07,29,06,10,14.60
2016,07,29,06,11,14.60
2016,07,29,06,12,14.60
2016,07,29,06,13,14.60
2016,07,29,06,14,14.60
2016,07,29,06,15,14.60
2016,07,29,06,16,14.60
2016,07,29,06,17,14.60
2016,07,29,06,18,14.60
2016,07,29,06,19,14.60
2016,07,29,06,20,14.60
2016,07,29,06,21,14.60
2016,07,29,06,22,14.60
2016,07,29,06,23,14.60
2016,07,29,06,24,14.60
2016,07,29,06,25,14.60
2016,07,29,06,26,14.60
2016,07,29,06,27,14.60
2016,07,29,06,28,14.70
2016,07,29,06,29,14.70
2016,07,29,06,30,14.70
2016,07,29,06,31,14.70
2016,07,29,06,32,14.70
2016,07,29,06,33,14.70
2016,07,29,06,34,14.70
2016,07,29,06,35,14.70
2016,07,29,06,36,14.70
2016,07,29,06,37,14.70
2016,07,29,06,38,14.70
2016,07,29,06,39,14.80
2016,07,29,06,40,14.80
2016,07,29,06,41,14.80
2016,07,29,06,42,14.80
2016,07,29,06,43,14.80
2016,07,29,06,44,14.80
2016,07,29,06,45,14.80
2016,07,29,06,46,14.80
2016,07,29,06,47,14.80
2016,07,29,06,48,14.80
2016,07,29,06,49,14.80
2016,07,29,06,50,14.80
2016,07,29,06,51,14.80
2016,07,29,06,52,14.80
2016,07,29,06,53,14.80
2016,07,29,06,54,14.80
2016,07,29,06,55,14.90
2016,07,29,06,56,14.90
2016,07,29,06,57,14.90
2016,07,29,06,58,15.00
2016,07,29,06,59,15.00
2016,07,29,07,00,15.00
2016,07,29,07,01,15.00
2016,07,29,07,02,15.00
2016,07,29,07,03,15.00
2016,07,29,07,04,15.00
2016,07,29,07,05,15.00
2016,07,29,07,06,15.00
2016,07,29,07,07,15.00
2016,07,29,07,08,15.00
2016,07,29,07,09,15.00
2016,07,29,07,10,15.00
2016,07,29,07,11,15.00
2016,07,29,07,12,15.00
2016,07,29,07,13,15.10
2016,07,29,07,14,15.20
2016,07,29,07,15,15.20
2016,07,29,07,16,15.20
2016,07,29,07,17,15.30
2016,07,29,07,18,15.30
2016,07,29,07,19,15.30
2016,07,29,07,20,15.30
2016,07,29,07,21,15.30
2016,07,29,07,22,15.40
2016,07,29,07,23,15.40
2016,07,29,07,24,15.40
2016,07,29,07,25,15.50
2016,07,29,07,26,15.50
2016,07,29,07,27,15.60
2016,07,29,07,28,15.60
2016,07,29,07,29,15.60
2016,07,29,07,30,15.70
2016,07,29,07,31,15.70
2016,07,29,07,32,15.70
2016,07,29,07,33,15.70
2016,07,29,07,34,15.70
2016,07,29,07,35,15.80
2016,07,29,07,36,15.80
2016,07,29,07,37,15.80
2016,07,29,07,38,15.80
2016,07,29,07,39,15.80
2016,07,29,07,40,15.90
2016,07,29,07,41,15.90
2016,07,29,07,42,15.90
2016,07,29,07,43,16.00
2016,07,29,07,44,16.00
2016,07,29,07,45,16.10
2016,07,29,07,46,16.10
2016,07,29,07,47,16.20
2016,07,29,07,48,16.20
2016,07,29,07,49,16.20
2016,07,29,07,50,16.30
2016,07,29,07,51,16.30
2016,07,29,07,52,16.40
2016,07,29,07,53,16.40
2016,07,29,07,54,16.50
2016,07,29,07,55,16.50
2016,07,29,07,56,16.60
2016,07,29,07,57,16.70
2016,07,29,07,58,16.70
2016,07,29,07,59,16.70
2016,07,29,08,00,16.80
2016,07,29,08,01,16.90
2016,07,29,08,02,16.90
2016,07,29,08,03,17.00
2016,07,29,08,04,17.10
2016,07,29,08,05,17.10
2016,07,29,08,06,17.20
2016,07,29,08,07,17.30
2016,07,29,08,08,17.30
2016,07,29,08,09,17.40
2016,07,29,08,10,17.50
2016,07,29,08,11,17.60
2016,07,29,08,12,17.70
2016,07,29,08,13,17.80
2016,07,29,08,14,17.90
2016,07,29,08,15,18.10
2016,07,29,08,16,18.20
2016,07,29,08,17,18.30
2016,07,29,08,18,18.50
2016,07,29,08,19,18.70
2016,07,29,08,20,18.80
2016,07,29,08,21,18.90
2016,07,29,08,22,19.00
2016,07,29,08,23,19.10
2016,07,29,08,24,19.20
2016,07,29,08,25,19.30
2016,07,29,08,26,19.40
2016,07,29,08,27,19.50
2016,07,29,08,28,19.60
2016,07,29,08,29,19.70
2016,07,29,08,30,19.70
2016,07,29,08,31,19.80
2016,07,29,08,32,19.90
2016,07,29,08,33,20.00
2016,07,29,08,34,20.10
2016,07,29,08,35,20.20
2016,07,29,08,36,20.30
2016,07,29,08,37,20.40
2016,07,29,08,38,20.60
2016,07,29,08,39,20.70
2016,07,29,08,40,20.80
2016,07,29,08,41,20.90
2016,07,29,08,42,21.00
2016,07,29,08,43,21.10
2016,07,29,08,44,21.20
2016,07,29,08,45,21.30
2016,07,29,08,46,21.30
2016,07,29,08,47,21.40
2016,07,29,08,48,21.50
2016,07,29,08,49,21.50
2016,07,29,08,50,21.50
2016,07,29,08,51,21.60
2016,07,29,08,52,21.60
2016,07,29,08,53,21.60
2016,07,29,08,54,21.70
2016,07,29,08,55,21.70
2016,07,29,08,56,21.80
2016,07,29,08,57,21.80
2016,07,29,08,58,21.90
2016,07,29,08,59,21.90
2016,07,29,09,00,22.00
2016,07,29,09,01,22.00
2016,07,29,09,02,22.00
2016,07,29,09,03,22.00
2016,07,29,09,04,22.10
2016,07,29,09,05,22.20
2016,07,29,09,06,22.30
2016,07,29,09,07,22.40
2016,07,29,09,08,22.40
2016,07,29,09,09,22.40
2016,07,29,09,10,22.40
2016,07,29,09,11,22.50
2016,07,29,09,12,22.60
2016,07,29,09,13,22.60
2016,07,29,09,14,22.70
2016,07,29,09,15,22.80
2016,07,29,09,16,22.90
2016,07,29,09,17,22.90
2016,07,29,09,18,22.90
2016,07,29,09,19,22.90
2016,07,29,09,20,22.90
2016,07,29,09,21,23.00
2016,07,29,09,22,23.10
2016,07,29,09,23,23.10
2016,07,29,09,24,23.20
2016,07,29,09,25,23.20
2016,07,29,09,26,23.30
2016,07,29,09,27,23.30
2016,07,29,09,28,23.30
2016,07,29,09,29,23.40
2016,07,29,09,30,23.30
2016,07,29,09,31,23.30
2016,07,29,09,32,23.30
2016,07,29,09,33,23.30
2016,07,29,09,34,23.30
2016,07,29,09,35,23.30
2016,07,29,09,36,23.30
2016,07,29,09,37,23.30
2016,07,29,09,38,23.30
2016,07,29,09,39,23.40
2016,07,29,09,40,23.40
2016,07,29,09,41,23.40
2016,07,29,09,42,23.50
2016,07,29,09,43,23.50
2016,07,29,09,44,23.60
2016,07,29,09,45,23.70
2016,07,29,09,46,23.70
2016,07,29,09,47,23.70
2016,07,29,09,48,23.80
2016,07,29,09,49,23.80
2016,07,29,09,50,23.80
2016,07,29,09,51,23.80
2016,07,29,09,52,23.80
2016,07,29,09,53,23.80
2016,07,29,09,54,23.90
2016,07,29,09,55,23.90
2016,07,29,09,56,23.90
2016,07,29,09,57,23.90
2016,07,29,09,58,23.90
2016,07,29,09,59,23.90
2016,07,29,10,00,23.90
2016,07,29,10,01,23.90
2016,07,29,10,02,23.90
2016,07,29,10,03,23.90
2016,07,29,10,04,23.90
2016,07,29,10,05,23.90
2016,07,29,10,06,23.90
2016,07,29,10,07,23.90
2016,07,29,10,08,23.90
2016,07,29,10,09,23.90
2016,07,29,10,10,24.00
2016,07,29,10,11,24.00
2016,07,29,10,12,24.10
2016,07,29,10,13,24.10
2016,07,29,10,14,24.20
2016,07,29,10,15,24.20
2016,07,29,10,16,24.20
2016,07,29,10,17,24.30
2016,07,29,10,18,24.30
2016,07,29,10,19,24.30
2016,07,29,10,20,24.30
2016,07,29,10,21,24.40
2016,07,29,10,22,24.40
2016,07,29,10,23,24.50
2016,07,29,10,24,24.50
2016,07,29,10,25,24.60
2016,07,29,10,26,24.60
2016,07,29,10,27,24.60
2016,07,29,10,28,24.60
2016,07,29,10,29,24.70
2016,07,29,10,30,24.70
2016,07,29,10,31,24.70
2016,07,29,10,32,24.80
2016,07,29,10,33,24.80
2016,07,29,10,34,24.80
2016,07,29,10,35,24.90
2016,07,29,10,36,25.00
2016,07,29,10,37,25.00
2016,07,29,10,38,25.10
2016,07,29,10,39,25.10
2016,07,29,10,40,25.00
2016,07,29,10,41,25.00
2016,07,29,10,42,24.90
2016,07,29,10,43,24.90
2016,07,29,10,44,24.90
2016,07,29,10,45,24.90
2016,07,29,10,46,24.90
2016,07,29,10,47,24.90
2016,07,29,10,48,25.00
2016,07,29,10,49,25.00
2016,07,29,10,50,25.10
2016,07,29,10,51,25.20
2016,07,29,10,52,25.30
2016,07,29,10,53,25.30
2016,07,29,10,54,25.40
2016,07,29,10,55,25.40
2016,07,29,10,56,25.40
2016,07,29,10,57,25.40
2016,07,29,10,58,25.50
2016,07,29,10,59,25.50
2016,07,29,11,00,25.60
2016,07,29,11,01,25.60
2016,07,29,11,02,25.60
2016,07,29,11,03,25.70
2016,07,29,11,04,25.70
2016,07,29,11,05,25.70
2016,07,29,11,06,25.80
2016,07,29,11,07,25.80
2016,07,29,11,08,25.90
2016,07,29,11,09,25.90
2016,07,29,11,10,25.80
2016,07,29,11,11,25.80
2016,07,29,11,12,25.80
2016,07,29,11,13,25.90
2016,07,29,11,14,25.90
2016,07,29,11,15,25.90
2016,07,29,11,16,26.00
2016,07,29,11,17,26.10
2016,07,29,11,18,26.20
2016,07,29,11,19,26.30
2016,07,29,11,20,26.40
2016,07,29,11,21,26.50
2016,07,29,11,22,26.60
2016,07,29,11,23,26.70
2016,07,29,11,24,26.80
2016,07,29,11,25,26.90
2016,07,29,11,26,27.00
2016,07,29,11,27,27.00
2016,07,29,11,28,27.10
2016,07,29,11,29,27.10
2016,07,29,11,30,27.20
2016,07,29,11,31,27.20
2016,07,29,11,32,27.20
2016,07,29,11,33,27.20
2016,07,29,11,34,27.20
2016,07,29,11,35,27.20
2016,07,29,11,36,27.30
2016,07,29,11,37,27.20
2016,07,29,11,38,27.30
2016,07,29,11,39,27.20
2016,07,29,11,40,27.10
2016,07,29,11,41,27.10
2016,07,29,11,42,27.00
2016,07,29,11,43,27.00
2016,07,29,11,44,27.00
2016,07,29,11,45,27.10
2016,07,29,11,46,27.10
2016,07,29,11,47,27.10
2016,07,29,11,48,27.10
2016,07,29,11,49,27.10
2016,07,29,11,50,27.10
2016,07,29,11,51,27.20
2016,07,29,11,52,27.20
2016,07,29,11,53,27.20
2016,07,29,11,54,27.30
2016,07,29,11,55,27.40
2016,07,29,11,56,27.50
2016,07,29,11,57,27.60
2016,07,29,11,58,27.70
2016,07,29,11,59,27.80
2016,07,29,12,00,27.80
2016,07,29,12,01,27.90
2016,07,29,12,02,27.90
2016,07,29,12,03,28.00
2016,07,29,12,04,28.20
2016,07,29,12,05,28.20
2016,07,29,12,06,28.20
2016,07,29,12,07,28.20
2016,07,29,12,08,28.20
2016,07,29,12,09,28.20
2016,07,29,12,10,28.30
2016,07,29,12,11,28.30
2016,07,29,12,12,28.20
2016,07,29,12,13,28.10
2016,07,29,12,14,28.00
2016,07,29,12,15,27.80
2016,07,29,12,16,27.80
2016,07,29,12,17,27.70
2016,07,29,12,18,27.70
2016,07,29,12,19,27.70
2016,07,29,12,20,27.60
2016,07,29,12,21,27.50
2016,07,29,12,22,27.50
2016,07,29,12,23,27.50
2016,07,29,12,24,27.60
2016,07,29,12,25,27.60
2016,07,29,12,26,27.70
2016,07,29,12,27,27.80
2016,07,29,12,28,27.80
2016,07,29,12,29,27.90
2016,07,29,12,30,28.00
2016,07,29,12,31,28.00
2016,07,29,12,32,27.90
2016,07,29,12,33,27.90
2016,07,29,12,34,28.00
2016,07,29,12,35,28.00
2016,07,29,12,36,28.00
2016,07,29,12,37,28.00
2016,07,29,12,38,28.00
2016,07,29,12,39,28.10
2016,07,29,12,40,28.10
2016,07,29,12,41,28.10
2016,07,29,12,42,28.10
2016,07,29,12,43,28.10
2016,07,29,12,44,28.10
2016,07,29,12,45,28.10
2016,07,29,12,46,28.20
2016,07,29,12,47,28.30
2016,07,29,12,48,28.30
2016,07,29,12,49,28.30
2016,07,29,12,50,28.30
2016,07,29,12,51,28.30
2016,07,29,12,52,28.30
2016,07,29,12,53,28.30
2016,07,29,12,54,28.30
2016,07,29,12,55,28.30
2016,07,29,12,56,28.30
2016,07,29,12,57,28.30
2016,07,29,12,58,28.30
2016,07,29,12,59,28.30
2016,07,29,13,00,28.40
2016,07,29,13,01,28.40
2016,07,29,13,02,28.40
2016,07,29,13,03,28.40
2016,07,29,13,04,28.40
2016,07,29,13,05,28.40
2016,07,29,13,06,28.40
2016,07,29,13,07,28.40
2016,07,29,13,08,28.50
2016,07,29,13,09,28.60
2016,07,29,13,10,28.60
2016,07,29,13,11,28.60
2016,07,29,13,12,28.60
2016,07,29,13,13,28.60
2016,07,29,13,14,28.60
2016,07,29,13,15,28.60
2016,07,29,13,16,28.60
2016,07,29,13,17,28.60
2016,07,29,13,18,28.50
2016,07,29,13,19,28.40
2016,07,29,13,20,28.40
2016,07,29,13,21,28.40
2016,07,29,13,22,28.40
2016,07,29,13,23,28.40
2016,07,29,13,24,28.30
2016,07,29,13,25,28.30
2016,07,29,13,26,28.30
2016,07,29,13,27,28.30
2016,07,29,13,28,28.40
2016,07,29,13,29,28.40
2016,07,29,13,30,28.40
2016,07,29,13,31,28.40
2016,07,29,13,32,28.40
2016,07,29,13,33,28.40
2016,07,29,13,34,28.40
2016,07,29,13,35,28.40
2016,07,29,13,36,28.40
2016,07,29,13,37,28.40
2016,07,29,13,38,28.40
2016,07,29,13,39,28.40
2016,07,29,13,40,28.40
2016,07,29,13,41,28.50
2016,07,29,13,42,28.50
2016,07,29,13,43,28.50
2016,07,29,13,44,28.50
2016,07,29,13,45,28.40
2016,07,29,13,46,28.40
2016,07,29,13,47,28.30
2016,07,29,13,48,28.10
2016,07,29,13,49,28.00
2016,07,29,13,50,28.00
2016,07,29,13,51,27.90
2016,07,29,13,52,27.80
2016,07,29,13,53,27.70
2016,07,29,13,54,27.70
2016,07,29,13,55,27.70
2016,07,29,13,56,27.70
2016,07,29,13,57,27.70
2016,07,29,13,58,27.80
2016,07,29,13,59,27.80
2016,07,29,14,00,27.80
2016,07,29,14,01,27.80
2016,07,29,14,02,27.80
2016,07,29,14,03,27.90
2016,07,29,14,04,27.90
2016,07,29,14,05,28.00
2016,07,29,14,06,28.10
2016,07,29,14,07,28.10
2016,07,29,14,08,28.20
2016,07,29,14,09,28.30
2016,07,29,14,10,28.30
2016,07,29,14,11,28.20
2016,07,29,14,12,28.20
2016,07,29,14,13,28.20
2016,07,29,14,14,28.20
2016,07,29,14,15,28.20
2016,07,29,14,16,28.10
2016,07,29,14,17,28.10
2016,07,29,14,18,28.10
2016,07,29,14,19,28.00
2016,07,29,14,20,27.90
2016,07,29,14,21,27.90
2016,07,29,14,22,27.80
2016,07,29,14,23,27.80
2016,07,29,14,24,27.80
2016,07,29,14,25,27.80
2016,07,29,14,26,27.80
2016,07,29,14,27,27.80
2016,07,29,14,28,27.90
2016,07,29,14,29,27.90
2016,07,29,14,30,27.90
2016,07,29,14,31,28.00
2016,07,29,14,32,28.00
2016,07,29,14,33,27.90
2016,07,29,14,34,27.90
2016,07,29,14,35,27.90
2016,07,29,14,36,27.80
2016,07,29,14,37,27.80
2016,07,29,14,38,27.80
2016,07,29,14,39,27.80
2016,07,29,14,40,27.90
2016,07,29,14,41,27.90
2016,07,29,14,42,27.90
2016,07,29,14,43,27.90
2016,07,29,14,44,27.90
2016,07,29,14,45,27.80
2016,07,29,14,46,27.80
2016,07,29,14,47,27.70
2016,07,29,14,48,27.70
2016,07,29,14,49,27.60
2016,07,29,14,50,27.60
2016,07,29,14,51,27.60
2016,07,29,14,52,27.70
2016,07,29,14,53,27.70
2016,07,29,14,54,27.80
2016,07,29,14,55,27.90
2016,07,29,14,56,27.90
2016,07,29,14,57,28.00
2016,07,29,14,58,28.00
2016,07,29,14,59,28.00
2016,07,29,15,00,28.00
2016,07,29,15,01,28.10
2016,07,29,15,02,28.10
2016,07,29,15,03,28.20
2016,07,29,15,04,28.20
2016,07,29,15,05,28.30
2016,07,29,15,06,28.40
2016,07,29,15,07,28.50
2016,07,29,15,08,28.60
2016,07,29,15,09,28.60
2016,07,29,15,10,28.60
2016,07,29,15,11,28.50
2016,07,29,15,12,28.50
2016,07,29,15,13,28.50
2016,07,29,15,14,28.50
2016,07,29,15,15,28.60
2016,07,29,15,16,28.50
2016,07,29,15,17,28.50
2016,07,29,15,18,28.50
2016,07,29,15,19,28.40
2016,07,29,15,20,28.40
2016,07,29,15,21,28.30
2016,07,29,15,22,28.30
2016,07,29,15,23,28.30
2016,07,29,15,24,28.30
2016,07,29,15,25,28.30
2016,07,29,15,26,28.30
2016,07,29,15,27,28.30
2016,07,29,15,28,28.40
2016,07,29,15,29,28.40
2016,07,29,15,30,28.40
2016,07,29,15,31,28.40
2016,07,29,15,32,28.40
2016,07,29,15,33,28.40
2016,07,29,15,34,28.40
2016,07,29,15,35,28.40
2016,07,29,15,36,28.40
2016,07,29,15,37,28.40
2016,07,29,15,38,28.40
2016,07,29,15,39,28.30
2016,07,29,15,40,28.30
2016,07,29,15,41,28.30
2016,07,29,15,42,28.30
2016,07,29,15,43,28.30
2016,07,29,15,44,28.20
2016,07,29,15,45,28.20
2016,07,29,15,46,28.20
2016,07,29,15,47,28.20
2016,07,29,15,48,28.20
2016,07,29,15,49,28.10
2016,07,29,15,50,28.10
2016,07,29,15,51,28.10
2016,07,29,15,52,28.20
2016,07,29,15,53,28.20
2016,07,29,15,54,28.20
2016,07,29,15,55,28.20
2016,07,29,15,56,28.20
2016,07,29,15,57,28.20
2016,07,29,15,58,28.20
2016,07,29,15,59,28.20
2016,07,29,16,00,28.20
2016,07,29,16,01,28.20
2016,07,29,16,02,28.20
2016,07,29,16,03,28.20
2016,07,29,16,04,28.10
2016,07,29,16,05,28.10
2016,07,29,16,06,28.10
2016,07,29,16,07,28.00
2016,07,29,16,08,28.00
2016,07,29,16,09,28.00
2016,07,29,16,10,27.90
2016,07,29,16,11,27.90
2016,07,29,16,12,28.00
2016,07,29,16,13,28.00
2016,07,29,16,14,28.10
2016,07,29,16,15,28.10
2016,07,29,16,16,28.00
2016,07,29,16,17,28.00
2016,07,29,16,18,28.00
2016,07,29,16,19,28.00
2016,07,29,16,20,28.00
2016,07,29,16,21,27.90
2016,07,29,16,22,27.90
2016,07,29,16,23,27.90
2016,07,29,16,24,27.90
2016,07,29,16,25,28.00
2016,07,29,16,26,28.00
2016,07,29,16,27,28.10
2016,07,29,16,28,28.10
2016,07,29,16,29,28.10
2016,07,29,16,30,28.10
2016,07,29,16,31,28.00
2016,07,29,16,32,28.00
2016,07,29,16,33,28.00
2016,07,29,16,34,27.90
2016,07,29,16,35,27.90
2016,07,29,16,36,27.90
2016,07,29,16,37,28.00
2016,07,29,16,38,28.00
2016,07,29,16,39,28.10
2016,07,29,16,40,28.10
2016,07,29,16,41,28.10
2016,07,29,16,42,28.10
2016,07,29,16,43,28.10
2016,07,29,16,44,28.10
2016,07,29,16,45,28.10
2016,07,29,16,46,28.20
2016,07,29,16,47,28.20
2016,07,29,16,48,28.30
2016,07,29,16,49,28.30
2016,07,29,16,50,28.30
2016,07,29,16,51,28.40
2016,07,29,16,52,28.40
2016,07,29,16,53,28.40
2016,07,29,16,54,28.40
2016,07,29,16,55,28.30
2016,07,29,16,56,28.30
2016,07,29,16,57,28.20
2016,07,29,16,58,28.20
2016,07,29,16,59,28.20
2016,07,29,17,00,28.10
2016,07,29,17,01,28.10
2016,07,29,17,02,28.00
2016,07,29,17,03,28.00
2016,07,29,17,04,28.00
2016,07,29,17,05,28.00
2016,07,29,17,06,28.00
2016,07,29,17,07,28.00
2016,07,29,17,08,28.00
2016,07,29,17,09,28.00
2016,07,29,17,10,28.00
2016,07,29,17,11,28.00
2016,07,29,17,12,28.00
2016,07,29,17,13,28.00
2016,07,29,17,14,27.90
2016,07,29,17,15,27.90
2016,07,29,17,16,27.90
2016,07,29,17,17,27.90
2016,07,29,17,18,27.90
2016,07,29,17,19,27.90
2016,07,29,17,20,27.90
2016,07,29,17,21,28.00
2016,07,29,17,22,27.90